| time (UTC) | temp F | wind direction | speed knots | gust knots | rain 1hr in | rain 24hr in | rain mn in | humidity % | barometer mb |
| 20260510033218 | 75 | 83 | 5.2 | 7.0 | 0.00 | 0.00 | 0.00 | 49 | 1009.7 |
| 20260510032218 | 75 | 112 | 5.2 | 6.1 | 0.00 | 0.00 | 0.00 | 50 | 1008.9 |
| 20260510031219 | 75 | 118 | 7.0 | 9.6 | 0.00 | 0.00 | 0.00 | 49 | 1008.6 |
| 20260510030219 | 75 | 116 | 7.0 | 9.6 | 0.00 | 0.00 | 0.00 | 49 | 1008.5 |
| 20260510025219 | 76 | 114 | 7.0 | 8.7 | 0.00 | 0.00 | 0.00 | 49 | 1009.0 |
| 20260510024219 | 76 | 126 | 7.0 | 8.7 | 0.00 | 0.00 | 0.00 | 49 | 1009.0 |
| 20260510023240 | 76 | 140 | 6.1 | 9.6 | 0.00 | 0.00 | 0.00 | 48 | 1009.1 |
| 20260510022221 | 77 | 129 | 7.0 | 7.8 | 0.00 | 0.00 | 0.00 | 47 | 1008.9 |
| 20260510021220 | 77 | 141 | 5.2 | 6.1 | 0.00 | 0.00 | 0.00 | 46 | 1008.6 |
| 20260510020217 | 77 | 138 | 5.2 | 7.0 | 0.00 | 0.00 | 0.00 | 46 | 1008.1 |
| 20260510015220 | 77 | 152 | 5.2 | 7.8 | 0.00 | 0.00 | 0.00 | 45 | 1007.5 |
| 20260510014220 | 78 | 167 | 4.3 | 7.0 | 0.00 | 0.00 | 0.00 | 44 | 1007.4 |
| 20260510013220 | 78 | 149 | 5.2 | 7.0 | 0.00 | 0.00 | 0.00 | 43 | 1007.3 |
| 20260510012218 | 79 | 149 | 3.5 | 4.3 | 0.00 | 0.00 | 0.00 | 42 | 1007.5 |
| 20260510011217 | 79 | 170 | 2.6 | 4.3 | 0.00 | 0.00 | 0.00 | 42 | 1007.4 |
| 20260510010218 | 79 | 152 | 4.3 | 6.1 | 0.00 | 0.00 | 0.00 | 41 | 1007.2 |
| 20260510005221 | 80 | 152 | 5.2 | 7.0 | 0.00 | 0.00 | 0.00 | 40 | 1007.4 |
| 20260510004218 | 80 | 160 | 3.5 | 5.2 | 0.00 | 0.00 | 0.00 | 40 | 1007.6 |
| 20260510003218 | 81 | 161 | 4.3 | 7.0 | 0.00 | 0.00 | 0.00 | 40 | 1007.5 |
| 20260510002219 | 81 | 146 | 6.1 | 7.8 | 0.00 | 0.00 | 0.00 | 41 | 1007.3 |
| 20260510001218 | 82 | 154 | 6.1 | 8.7 | 0.00 | 0.00 | 0.00 | 40 | 1007.5 |
| 20260510000219 | 82 | 151 | 6.1 | 7.8 | 0.00 | 0.00 | 0.00 | 40 | 1007.5 |
| 20260509235239 | 82 | 169 | 5.2 | 7.8 | 0.00 | 0.00 | 0.00 | 39 | 1007.4 |
| 20260509234219 | 83 | 153 | 6.1 | 10.4 | 0.00 | 0.00 | 0.00 | 36 | 1007.5 |
| 20260509233239 | 83 | 170 | 5.2 | 9.6 | 0.00 | 0.00 | 0.00 | 37 | 1007.5 |
| 20260509232219 | 83 | 176 | 5.2 | 7.8 | 0.00 | 0.00 | 0.00 | 35 | 1007.5 |
| 20260509231219 | 84 | 156 | 7.0 | 9.6 | 0.00 | 0.00 | 0.00 | 37 | 1007.7 |
| 20260509230219 | 84 | 186 | 4.3 | 9.6 | 0.00 | 0.00 | 0.00 | 37 | 1007.6 |
| 20260509225220 | 83 | 133 | 6.1 | 8.7 | 0.00 | 0.27 | 0.00 | 35 | 1007.7 |
| 20260509224240 | 84 | 120 | 8.7 | 11.3 | 0.00 | 0.47 | 0.00 | 34 | 1007.8 |
| 20260509223220 | 84 | 160 | 7.8 | 11.3 | 0.00 | 0.47 | 0.00 | 33 | 1008.0 |
| 20260509222217 | 83 | 134 | 7.0 | 7.8 | 0.00 | 0.47 | 0.00 | 34 | 1008.2 |
| 20260509221240 | 83 | 130 | 6.1 | 8.7 | 0.00 | 0.47 | 0.00 | 34 | 1008.2 |
| 20260509220220 | 83 | 135 | 5.2 | 7.0 | 0.00 | 0.47 | 0.00 | 36 | 1008.3 |
| 20260509215237 | 83 | 168 | 6.1 | 9.6 | 0.00 | 0.47 | 0.00 | 34 | 1008.2 |
| 20260509214218 | 83 | 154 | 7.0 | 9.6 | 0.00 | 0.47 | 0.00 | 35 | 1008.2 |
| 20260509213218 | 83 | 132 | 5.2 | 7.8 | 0.00 | 0.47 | 0.00 | 36 | 1008.3 |
| 20260509212220 | 83 | 127 | 6.1 | 8.7 | 0.00 | 0.47 | 0.00 | 36 | 1008.4 |
| 20260509211218 | 83 | 136 | 5.2 | 11.3 | 0.00 | 0.47 | 0.00 | 35 | 1008.6 |
| 20260509210218 | 83 | 136 | 7.8 | 8.7 | 0.00 | 0.47 | 0.00 | 35 | 1008.7 |
| 20260509205218 | 83 | 120 | 5.2 | 7.8 | 0.00 | 0.47 | 0.00 | 36 | 1008.8 |
| 20260509204218 | 83 | 133 | 0.9 | 2.6 | 0.00 | 0.47 | 0.00 | 36 | 1008.9 |
| 20260509203218 | 82 | 168 | 3.5 | 5.2 | 0.00 | 0.47 | 0.00 | 36 | 1008.9 |
| 20260509202218 | 82 | 151 | 3.5 | 6.1 | 0.00 | 0.47 | 0.00 | 35 | 1009.0 |
| 20260509201219 | 82 | 149 | 6.1 | 8.7 | 0.00 | 0.47 | 0.00 | 35 | 1009.1 |
| 20260509200219 | 82 | 124 | 4.3 | 6.1 | 0.00 | 0.47 | 0.00 | 34 | 1009.3 |
| 20260509195219 | 82 | 130 | 3.5 | 5.2 | 0.00 | 0.47 | 0.00 | 33 | 1009.5 |
| 20260509194219 | 81 | 157 | 2.6 | 3.5 | 0.00 | 0.47 | 0.00 | 32 | 1009.5 |
| 20260509193219 | 82 | 138 | 5.2 | 7.0 | 0.00 | 0.47 | 0.00 | 32 | 1009.6 |
| 20260509192239 | 82 | 107 | 4.3 | 7.0 | 0.00 | 0.47 | 0.00 | 34 | 1009.7 |
| 20260509191219 | 81 | 97 | 5.2 | 6.1 | 0.00 | 0.47 | 0.00 | 32 | 1009.8 |
| 20260509190240 | 82 | 142 | 3.5 | 4.3 | 0.00 | 0.47 | 0.00 | 33 | 1010.0 |
| 20260509185240 | 81 | 84 | 2.6 | 4.3 | 0.00 | 0.47 | 0.00 | 28 | 1010.0 |
| 20260509184217 | 80 | 126 | 3.5 | 6.1 | 0.00 | 0.47 | 0.00 | 31 | 1010.2 |
| 20260509183217 | 80 | 146 | 6.1 | 7.0 | 0.00 | 0.47 | 0.00 | 32 | 1010.2 |
| 20260509182220 | 80 | 125 | 6.1 | 7.8 | 0.00 | 0.47 | 0.00 | 35 | 1010.3 |
| 20260509181240 | 80 | 231 | 4.3 | 7.0 | 0.00 | 0.47 | 0.00 | 38 | 1010.5 |
| 20260509180220 | 80 | 164 | 3.5 | 6.1 | 0.00 | 0.47 | 0.00 | 40 | 1010.6 |
| 20260509175218 | 79 | 213 | 3.5 | 7.0 | 0.00 | 0.47 | 0.00 | 41 | 1010.9 |
| 20260509174238 | 79 | 151 | 6.1 | 7.8 | 0.00 | 0.47 | 0.00 | 41 | 1011.1 |
| 20260509173237 | 78 | 154 | 3.5 | 5.2 | 0.00 | 0.47 | 0.00 | 33 | 1011.1 |
| 20260509172221 | 78 | 243 | 1.7 | 2.6 | 0.00 | 0.47 | 0.00 | 45 | 1011.3 |
| 20260509171218 | 78 | 165 | 2.6 | 5.2 | 0.00 | 0.47 | 0.00 | 45 | 1011.3 |
| 20260509170218 | 77 | 120 | 1.7 | 4.3 | 0.00 | 0.47 | 0.00 | 42 | 1011.4 |
| 20260509165218 | 76 | 185 | 4.3 | 7.8 | 0.00 | 0.47 | 0.00 | 50 | 1011.5 |
| 20260509164239 | 76 | 114 | 4.3 | 6.1 | 0.00 | 0.47 | 0.00 | 54 | 1011.5 |
| 20260509163219 | 75 | 170 | 4.3 | 6.1 | 0.00 | 0.47 | 0.00 | 61 | 1011.7 |
| 20260509162219 | 74 | 113 | 3.5 | 4.3 | 0.00 | 0.47 | 0.00 | 62 | 1011.8 |
| 20260509161219 | 73 | 135 | 4.3 | 7.0 | 0.00 | 0.47 | 0.00 | 65 | 1011.9 |
| 20260509160219 | 72 | 175 | 3.5 | 7.0 | 0.00 | 0.47 | 0.00 | 70 | 1011.9 |
| 20260509155219 | 71 | 129 | 4.3 | 5.2 | 0.00 | 0.47 | 0.00 | 73 | 1011.6 |
| 20260509154219 | 71 | 150 | 3.5 | 5.2 | 0.00 | 0.47 | 0.00 | 72 | 1011.8 |
| 20260509153219 | 70 | 145 | 4.3 | 5.2 | 0.00 | 0.47 | 0.00 | 71 | 1011.6 |
| 20260509152220 | 70 | 140 | 4.3 | 6.1 | 0.00 | 0.47 | 0.00 | 72 | 1011.5 |
| 20260509151220 | 70 | 140 | 1.7 | 3.5 | 0.00 | 0.47 | 0.00 | 69 | 1011.7 |
| 20260509150220 | 69 | 141 | 2.6 | 4.3 | 0.00 | 0.47 | 0.00 | 72 | 1011.6 |
| 20260509145237 | 68 | 117 | 3.5 | 5.2 | 0.00 | 0.47 | 0.00 | 75 | 1011.5 |
| 20260509144240 | 67 | 83 | 3.5 | 4.3 | 0.00 | 0.47 | 0.00 | 79 | 1011.4 |
| 20260509143220 | 67 | 66 | 1.7 | 4.3 | 0.00 | 0.47 | 0.00 | 80 | 1011.6 |
| 20260509142220 | 67 | 72 | 0.9 | 2.6 | 0.00 | 0.47 | 0.00 | 80 | 1011.7 |
| 20260509141220 | 66 | 294 | 0.0 | 0.9 | 0.00 | 0.47 | 0.00 | 83 | 1011.7 |
| 20260509140237 | 64 | 32 | 0.0 | 0.9 | 0.00 | 0.47 | 0.00 | 87 | 1011.7 |
| 20260509135217 | 64 | 21 | 0.9 | 1.7 | 0.00 | 0.47 | 0.00 | 90 | 1011.6 |
| 20260509134220 | 63 | 329 | 0.0 | 0.9 | 0.00 | 0.47 | 0.00 | 94 | 1011.6 |
| 20260509133218 | 62 | 303 | 0.9 | 1.7 | 0.00 | 0.47 | 0.00 | 96 | 1011.4 |
| 20260509132218 | 61 | 296 | 0.9 | 1.7 | 0.00 | 0.47 | 0.00 | 96 | 1011.4 |
| 20260509131218 | 60 | 12 | 0.0 | 0.0 | 0.00 | 0.47 | 0.00 | 97 | 1011.3 |
| 20260509130218 | 59 | 302 | 1.7 | 2.6 | 0.00 | 0.47 | 0.00 | 97 | 1011.1 |
| 20260509125218 | 59 | 315 | 0.0 | 0.9 | 0.00 | 0.47 | 0.00 | 98 | 1011.1 |
| 20260509124239 | 58 | 310 | 0.9 | 1.7 | 0.00 | 0.47 | 0.00 | 98 | 1010.8 |
| 20260509123218 | 58 | 350 | 0.0 | 0.9 | 0.00 | 0.47 | 0.00 | 98 | 1010.8 |
| 20260509122218 | 57 | 289 | 1.7 | 1.7 | 0.00 | 0.47 | 0.00 | 98 | 1010.7 |
| 20260509121219 | 56 | 294 | 0.0 | 1.7 | 0.00 | 0.47 | 0.00 | 98 | 1010.7 |
| 20260509120219 | 56 | 0.0 | 0.0 | 0.00 | 0.47 | 0.00 | 97 | 1010.6 | |
| 20260509115239 | 55 | 0.0 | 0.0 | 0.00 | 0.47 | 0.00 | 97 | 1010.5 | |
| 20260509114219 | 56 | 294 | 1.7 | 1.7 | 0.00 | 0.47 | 0.00 | 97 | 1010.5 |
| 20260509113219 | 56 | 292 | 0.9 | 1.7 | 0.00 | 0.47 | 0.00 | 97 | 1010.3 |
| 20260509112220 | 56 | 308 | 1.7 | 1.7 | 0.00 | 0.47 | 0.00 | 97 | 1010.2 |
| 20260509111239 | 56 | 0.0 | 0.0 | 0.00 | 0.47 | 0.00 | 97 | 1010.0 | |
| 20260509110220 | 56 | 71 | 0.0 | 0.0 | 0.00 | 0.47 | 0.00 | 97 | 1010.0 |
| 20260509105220 | 56 | 0.0 | 0.0 | 0.00 | 0.47 | 0.00 | 96 | 1010.1 | |
| 20260509104220 | 57 | 111 | 0.0 | 0.0 | 0.00 | 0.47 | 0.00 | 96 | 1010.1 |
| 20260509103220 | 57 | 0.0 | 0.0 | 0.00 | 0.47 | 0.00 | 96 | 1010.2 | |
| 20260509102220 | 57 | 0.0 | 0.0 | 0.00 | 0.47 | 0.00 | 96 | 1010.2 | |
| 20260509101220 | 57 | 288 | 0.9 | 1.7 | 0.00 | 0.47 | 0.00 | 96 | 1010.4 |
| 20260509100221 | 58 | 285 | 0.9 | 1.7 | 0.00 | 0.47 | 0.00 | 96 | 1010.6 |
| 20260509095220 | 58 | 0.0 | 0.0 | 0.00 | 0.47 | 0.00 | 96 | 1010.6 | |
| 20260509094221 | 58 | 344 | 1.7 | 1.7 | 0.00 | 0.47 | 0.00 | 96 | 1010.7 |
| 20260509093221 | 58 | 313 | 0.0 | 0.0 | 0.00 | 0.47 | 0.00 | 96 | 1010.8 |
| 20260509092221 | 58 | 0.0 | 0.0 | 0.00 | 0.47 | 0.00 | 96 | 1010.7 | |
| 20260509091221 | 58 | 353 | 0.0 | 0.9 | 0.00 | 0.47 | 0.00 | 95 | 1010.5 |
| 20260509090221 | 58 | 316 | 0.0 | 0.0 | 0.00 | 0.47 | 0.00 | 95 | 1010.7 |
| 20260509085221 | 58 | 123 | 0.0 | 0.0 | 0.00 | 0.47 | 0.00 | 95 | 1010.7 |
| 20260509084222 | 59 | 0.0 | 0.0 | 0.00 | 0.47 | 0.00 | 95 | 1010.5 | |
| 20260509083221 | 59 | 0.0 | 0.0 | 0.00 | 0.47 | 0.00 | 95 | 1010.5 | |
| 20260509082222 | 59 | 0.0 | 0.0 | 0.00 | 0.47 | 0.00 | 94 | 1010.5 | |
| 20260509081222 | 59 | 115 | 0.9 | 0.9 | 0.00 | 0.47 | 0.00 | 94 | 1010.5 |
| 20260509080222 | 59 | 25 | 0.0 | 0.0 | 0.00 | 0.47 | 0.00 | 94 | 1010.7 |
| 20260509075242 | 59 | 0.0 | 0.0 | 0.00 | 0.47 | 0.00 | 93 | 1010.9 | |
| 20260509074222 | 59 | 27 | 0.9 | 0.9 | 0.00 | 0.47 | 0.00 | 93 | 1011.0 |
| 20260509073302 | 59 | 40 | 0.0 | 0.9 | 0.00 | 0.47 | 0.00 | 93 | 1011.2 |
| 20260509072222 | 60 | 0.0 | 0.0 | 0.00 | 0.47 | 0.00 | 92 | 1011.2 | |
| 20260509071222 | 60 | 230 | 0.9 | 1.7 | 0.00 | 0.47 | 0.00 | 92 | 1011.2 |
| 20260509070223 | 60 | 183 | 0.9 | 1.7 | 0.00 | 0.47 | 0.00 | 92 | 1011.1 |
| 20260509065223 | 61 | 240 | 0.0 | 0.0 | 0.00 | 0.47 | 0.00 | 91 | 1011.1 |
| 20260509064223 | 61 | 110 | 0.0 | 0.9 | 0.00 | 0.47 | 0.00 | 90 | 1011.0 |
| 20260509063223 | 61 | 136 | 1.7 | 1.7 | 0.00 | 0.47 | 0.00 | 89 | 1011.1 |
| 20260509062221 | 62 | 134 | 3.5 | 4.3 | 0.00 | 0.47 | 0.00 | 89 | 1011.3 |
| 20260509061244 | 62 | 106 | 0.0 | 1.7 | 0.00 | 0.47 | 0.00 | 88 | 1011.3 |
| 20260509060221 | 63 | 151 | 2.6 | 4.3 | 0.00 | 0.47 | 0.00 | 87 | 1011.3 |
| 20260509055221 | 62 | 104 | 3.5 | 4.3 | 0.00 | 0.47 | 0.00 | 88 | 1011.2 |
| 20260509054224 | 62 | 72 | 2.6 | 3.5 | 0.00 | 0.47 | 0.00 | 88 | 1011.1 |
| 20260509053224 | 63 | 73 | 3.5 | 4.3 | 0.00 | 0.47 | 0.00 | 88 | 1011.1 |
| 20260509052224 | 63 | 91 | 1.7 | 1.7 | 0.00 | 0.47 | 0.00 | 88 | 1011.1 |
| 20260509051224 | 63 | 90 | 1.7 | 1.7 | 0.00 | 0.47 | 0.00 | 88 | 1011.2 |
| 20260509050221 | 64 | 75 | 2.6 | 4.3 | 0.00 | 0.47 | 0.00 | 87 | 1011.0 |
| 20260509045222 | 64 | 76 | 4.3 | 6.1 | 0.00 | 0.47 | 0.47 | 87 | 1011.1 |
| 20260509044222 | 64 | 89 | 4.3 | 4.3 | 0.00 | 0.47 | 0.47 | 87 | 1011.3 |
| 20260509043222 | 64 | 71 | 3.5 | 5.2 | 0.00 | 0.47 | 0.47 | 86 | 1011.3 |
| 20260509042242 | 64 | 85 | 5.2 | 7.0 | 0.00 | 0.47 | 0.47 | 86 | 1011.2 |
| 20260509041225 | 64 | 114 | 3.5 | 4.3 | 0.00 | 0.47 | 0.47 | 87 | 1011.1 |
| 20260509040245 | 64 | 119 | 2.6 | 3.5 | 0.00 | 0.47 | 0.47 | 88 | 1011.1 |
| 20260509035242 | 64 | 104 | 1.7 | 2.6 | 0.00 | 0.47 | 0.47 | 88 | 1010.7 |
| 20260509034217 | 64 | 100 | 3.5 | 3.5 | 0.00 | 0.47 | 0.47 | 88 | 1010.6 |